ARIANE 2 DEB, 29023

Orbit data source: Space-Track

ARIANE 2 DEB, 29023 is space debris in HEO originally from a launch on Fri, 27 Jan 1989 UTC launched from the French Guiana (FRGUI). Debris objects in space refer to the collection of defunct objects orbiting the Earth. Examples of debris include non-operational satellites, rocket bodies, and fragments generated from explosions, collisions, or faulty payload assembly.

Not visible in the next 10 days
Identifier
29023, 1989-006AP
Orbit
HEO
Country
Flag of FRFR
Related business
Manufacturer
EADS/LV
Mission
Spacecraft
Bus & Motor
Unknown
Mass
Unknown
Launch date (UTC)
1989-01-27 (37 years ago)
Launch vehicle
Unknown
Launch site
French Guiana (FRGUI)
Object type
Payload
Rocket body
Debris
Shape & HBR
Unknown shape, 1.1 m
Radar Cross Section
Medium (>0.1 m² and <1 m²)

Expand to show TLE details & history
Last TLE update: 23 hours ago

TLE from 23 hours ago
0 ARIANE 2 DEB
1 29023U 89006AP  25348.64674900 -.00000564  00000-0 -26142-1 0  9990
2 29023   8.1339  49.3107 7074121 143.5383 266.5666  2.25235566 95934
Epoch: 2025-12-14T15:31Z
TLE epoch observation values (Epoch: 2025-12-14T15:31:19.113Z)
Latitude
-1.76641°
Longitude
80.37099°
Altitude
28,472.41 km
Speed
2.581 km/s
True Right ascension
02h 27m 01s
True Declination
-1° 45' 51"
Sunlit
Object was in daylight at epoch
Visualization orbit readout
Latitude
Unknown
Longitude
Unknown
Altitude
Unknown
Speed
Unknown
Apparent Right ascension
Unknown
Apparent Declination
Unknown
Sunlit
N/A
Visualization observer readout
Local Sidereal Time
13:22:50
Azimuth
Unknown
Elevation
Unknown
Doppler factor
Unknown
Orbital elements
Apogee altitude
35,604.472 km
Perigee altitude
816.145 km
Semi-major axis
24,588.446 km
Eccentricity
0.70741
Inclination
8.1339°
RAAN
49.3107°
Arg. of periapsis
143.5383°
True anomaly
203.7419°
Mean anomaly
266.5666°
Eccentric anomaly
233.84169°
Mean motion
0.56292 °/min
Orbital period
639.52 mins
BSTAR
-0.026142
Loading maneuver chart data...
Computing Atmospheric mass density...
Loading historical data...
Loading historical data...
Loading historical data...
Loading historical data...
Loading historical data...
Loading historical data...
Loading historical data...

Documentation

Showing up to 5 results
|